Flag for Kazakhstan Weather past 2 weeks in Almaty, Kazakhstan

Now
19 °F

Ice fog.


Feels Like: 19 °F
Forecast: 22 / 42 °F
Wind: 1 mph from North

Location: Almaty Airport

Current Time: Dec 22, 2014 at 8:54:12 AM

Latest Report: Dec 22, 2014 at 8:30 AM


Visibility: 0 mi

Pressure: 30.09 "Hg

Humidity: 86%

Dew point: 16 °F

Location of AlmatyLocation

Historic Weather in Almaty — Graph

°F

Almaty temperature yesterday

Maximum temperature yesterday: 34 °F (at 1:30 PM)
Minimum temperature yesterday: 18 °F (at 8:30 AM)
Average temperature yesterday: 26 °F

Past Weeks' High & Low Weather Summary

 TemperatureHumidityPressure
High34 °F (Dec 20, 3:00 PM)93% (Dec 7, 7:00 AM)31.01 "Hg (Dec 7, 7:00 AM)
Low-2 °F (Dec 9, 12:30 AM)39% (Dec 10, 3:30 PM)30.07 "Hg (Dec 22, 5:00 AM)
Average15 °F76%30.46 "Hg
* Reported Dec 7 7:00 AM — Dec 22 7:30 AM, Almaty, Weather by CustomWeather, © 2014

Note: Actual official high and low records may vary slightly from our data, if they occured in-between our weather recording intervals... More about our weather records

Advertising

Almaty weather history for previous 24 hours

 ConditionsComfort  
Time TempWeatherWind HumidityBarometerVisibility
7:30 AM
Dec 22
18 °FIce fog.1 mph93%30.09 "Hg0 mi
7:00 AM19 °FIce fog.3 mph86%30.07 "Hg0 mi
6:30 AM19 °FIce fog.3 mph86%30.07 "Hg1 mi
6:00 AM18 °FIce fog.1 mph86%30.07 "Hg1 mi
5:30 AM19 °FIce fog.1 mph86%30.07 "Hg1 mi
5:00 AM19 °FIce fog.1 mph86%30.07 "Hg1 mi
4:30 AM19 °FIce fog.3 mph86%30.09 "Hg1 mi
3:30 AM19 °FFog.1 mph86%30.09 "Hg0 mi
3:00 AM19 °FFog.3 mph86%30.09 "Hg0 mi
2:30 AM19 °FFog.3 mph86%30.09 "Hg0 mi
2:00 AM19 °FIce fog.1 mph86%30.09 "Hg0 mi
1:30 AM19 °FIce fog.No wind86%30.09 "Hg0 mi
1:00 AM19 °FIce fog.No wind86%30.09 "Hg0 mi
12:30 AM19 °FIce fog.1 mph86%30.09 "Hg0 mi
12:00 AM19 °FIce fog.No wind86%30.09 "Hg0 mi
11:30 PM
Dec 21
21 °FIce fog.1 mph80%30.09 "Hg0 mi
11:00 PM21 °FIce fog.3 mph86%30.12 "Hg0 mi
10:30 PM21 °FIce fog.1 mph86%30.12 "Hg0 mi
10:00 PM23 °FIce fog.No wind80%30.09 "Hg0 mi
9:30 PM23 °FIce fog.3 mph86%30.09 "Hg0 mi
9:00 PM23 °FIce fog.3 mph86%30.09 "Hg0 mi
8:30 PM25 °FIce fog.3 mph80%30.12 "Hg0 mi
8:00 PM25 °FIce fog.1 mph80%30.09 "Hg0 mi
7:30 PM25 °FIce fog.1 mph80%30.09 "Hg0 mi
7:00 PM27 °FIce fog.3 mph80%30.09 "Hg0 mi
6:30 PM27 °FIce fog.1 mph80%30.09 "Hg0 mi
6:00 PM28 °FIce fog.1 mph74%30.09 "Hg1 mi
5:30 PM28 °FIce fog.3 mph74%30.09 "Hg1 mi
5:00 PM32 °FBroken clouds.1 mph64%30.09 "Hg1 mi
4:30 PM34 °FBroken clouds.1 mph65%30.09 "Hg1 mi
4:00 PM34 °FPartly sunny.3 mph65%30.09 "Hg1 mi
3:30 PM34 °FPartly sunny.3 mph65%30.09 "Hg1 mi
3:00 PM32 °FPartly sunny.3 mph69%30.09 "Hg1 mi
2:30 PM34 °FPartly sunny.3 mph70%30.09 "Hg1 mi
2:00 PM34 °FPartly sunny.3 mph65%30.09 "Hg1 mi
1:30 PM34 °FPartly sunny.3 mph60%30.12 "Hg1 mi
1:00 PM32 °FPartly sunny.3 mph64%30.12 "Hg1 mi
12:30 PM32 °FPartly sunny.1 mph64%30.12 "Hg1 mi
12:00 PM28 °FPartly sunny.1 mph69%30.12 "Hg1 mi
11:30 AM27 °FIce fog.1 mph74%30.15 "Hg1 mi
11:00 AM27 °FBroken clouds.1 mph74%30.15 "Hg0 mi
10:30 AM25 °FIce fog.3 mph80%30.15 "Hg0 mi
10:00 AM21 °FIce fog.3 mph86%30.15 "Hg0 mi
9:30 AM19 °FIce fog.3 mph93%30.15 "Hg0 mi
9:00 AM19 °FIce fog.3 mph86%30.15 "Hg0 mi
8:30 AM18 °FIce fog.3 mph93%30.15 "Hg0 mi
8:00 AM19 °FIce fog.1 mph86%30.15 "Hg0 mi
Weather by CustomWeather, © 2014

See weather overviewHow to use our weather pages